Torna al catalogo

STARLINK-1215

AttivoComunicazioniVLEO
NORAD 45225·PAYLOAD·🇺🇸 United States

Lanciato Feb 17, 2020 da Cape Canaveral Space Force Station

Loading…

Prossimi Passaggi (prossime 24 ore)

TLE

AggiornatoSource: CelesTrak SupGP

Epoca: Sep 14, 2026, 21:38 UTC

1 45225C 20012AZ  26257.90187500  .00025890  00000+0  56899-3 0  2575
2 45225  53.1513 191.8777 0002953 112.1020 246.7754 15.43409134    14

Traccia STARLINK-1215 in tempo reale con AllMySat

Download on the App Store